VLG6DD LEPA-LEBL

Flight info

Callsign VLG6DD
Flight time 0h 27m
Altitude 16000
Route ESPOR L2 NEPAL
Aircraft A21N/M-SDE2E3FGHIRWXY/LB1

Departure

Time 2026-05-05 08:49
Airport Palma de Mallorca Airport (LEPA)

Arrival

Time 2026-05-05 09:17
Airport Josep Tarradellas Barcelona-El Prat Airport (LEBL)
Time Latitude Longitude Altitude Speed Heading
2026-05-05 08:22 39.55043 2.73536 38 ft 0 kts 165°
2026-05-05 08:41 39.55054 2.73527 38 ft 2 kts 128°
2026-05-05 08:41 39.55061 2.73508 38 ft 2 kts 101°
2026-05-05 08:41 39.55062 2.73487 38 ft 2 kts 88°
2026-05-05 08:42 39.55061 2.73465 38 ft 2 kts 80°
2026-05-05 08:42 39.55057 2.73445 37 ft 2 kts 73°
2026-05-05 08:42 39.55053 2.73428 35 ft 1 kts 62°
2026-05-05 08:43 39.55061 2.73450 38 ft 5 kts 63°
2026-05-05 08:43 39.55064 2.73458 38 ft 0 kts 63°
2026-05-05 08:44 39.55081 2.73494 37 ft 11 kts 55°
2026-05-05 08:44 39.55115 2.73583 36 ft 7 kts 59°
2026-05-05 08:44 39.55175 2.73689 38 ft 16 kts 68°
2026-05-05 08:45 39.55184 2.73819 37 ft 6 kts 43°
2026-05-05 08:45 39.55219 2.73818 38 ft 12 kts 336°
2026-05-05 08:45 39.55325 2.73734 38 ft 24 kts 330°
2026-05-05 08:45 39.55451 2.73633 38 ft 22 kts 328°
2026-05-05 08:46 39.55589 2.73522 38 ft 18 kts 329°
2026-05-05 08:46 39.55688 2.73568 38 ft 18 kts 59°
2026-05-05 08:46 39.55730 2.73663 38 ft 19 kts 58°
2026-05-05 08:46 39.55810 2.73827 38 ft 23 kts 58°
2026-05-05 08:47 39.55897 2.74013 37 ft 25 kts 58°
2026-05-05 08:47 39.55991 2.74214 38 ft 25 kts 57°
2026-05-05 08:47 39.56059 2.74280 37 ft 11 kts 26°
2026-05-05 08:47 39.56144 2.74336 37 ft 16 kts 27°
2026-05-05 08:48 39.56226 2.74284 37 ft 15 kts 272°
2026-05-05 08:48 39.56190 2.74190 38 ft 0 kts 238°
2026-05-05 08:48 39.56182 2.74174 37 ft 4 kts 242°
2026-05-05 08:48 39.56163 2.74128 38 ft 8 kts 237°
2026-05-05 08:49 39.56047 2.73887 38 ft 78 kts 238°
2026-05-05 08:49 39.55610 2.72968 55 ft 157 kts 239°
2026-05-05 08:49 39.54990 2.71617 644 ft 185 kts 240°
2026-05-05 08:49 39.54323 2.70056 1418 ft 213 kts 240°
2026-05-05 08:50 39.53583 2.68242 2061 ft 240 kts 239°
2026-05-05 08:50 39.52633 2.66443 3212 ft 242 kts 231°
2026-05-05 08:50 39.51576 2.64696 4490 ft 245 kts 231°
2026-05-05 08:50 39.50543 2.62913 5646 ft 250 kts 233°
2026-05-05 08:51 39.49553 2.61076 6795 ft 254 kts 235°
2026-05-05 08:51 39.48571 2.59155 7937 ft 258 kts 236°
2026-05-05 08:51 39.47596 2.57195 9109 ft 261 kts 236°
2026-05-05 08:51 39.46613 2.55201 10241 ft 264 kts 236°
2026-05-05 08:52 39.45630 2.53204 11386 ft 263 kts 237°
2026-05-05 08:52 39.44755 2.51123 12487 ft 265 kts 249°
2026-05-05 08:52 39.44432 2.48769 13602 ft 269 kts 269°
2026-05-05 08:52 39.44803 2.46381 14591 ft 277 kts 289°
2026-05-05 08:53 39.45898 2.44267 15433 ft 292 kts 310°
2026-05-05 08:53 39.47636 2.42797 15812 ft 309 kts 332°
2026-05-05 08:53 39.49678 2.41861 15943 ft 312 kts 335°
2026-05-05 08:53 39.51798 2.40948 15963 ft 337 kts 335°
2026-05-05 08:54 39.54125 2.39927 15962 ft 366 kts 336°
2026-05-05 08:54 39.56573 2.38875 15958 ft 372 kts 337°
2026-05-05 08:54 39.59047 2.37886 15959 ft 372 kts 338°
2026-05-05 08:54 39.61526 2.36909 15964 ft 372 kts 338°
2026-05-05 08:55 39.63997 2.35926 15956 ft 372 kts 337°
2026-05-05 08:55 39.66477 2.34929 15956 ft 373 kts 337°
2026-05-05 08:55 39.68947 2.33927 15954 ft 372 kts 337°
2026-05-05 08:55 39.71422 2.32920 15952 ft 373 kts 337°
2026-05-05 08:56 39.73895 2.31911 15952 ft 373 kts 337°
2026-05-05 08:56 39.76369 2.30901 15949 ft 373 kts 337°
2026-05-05 08:56 39.78846 2.29889 15947 ft 373 kts 337°
2026-05-05 08:56 39.81319 2.28879 15946 ft 373 kts 337°
2026-05-05 08:57 39.83795 2.27868 15946 ft 373 kts 337°
2026-05-05 08:57 39.86271 2.26855 15947 ft 373 kts 337°
2026-05-05 08:57 39.88748 2.25841 15945 ft 373 kts 337°
2026-05-05 08:57 39.91226 2.24827 15946 ft 374 kts 337°
2026-05-05 08:58 39.93709 2.23809 15943 ft 374 kts 337°
2026-05-05 08:58 39.96186 2.22793 15948 ft 374 kts 337°
2026-05-05 08:58 39.98671 2.21774 15945 ft 374 kts 337°
2026-05-05 08:58 40.01149 2.20757 15947 ft 374 kts 337°
2026-05-05 08:59 40.03629 2.19738 15945 ft 374 kts 337°
2026-05-05 08:59 40.06108 2.18719 15949 ft 374 kts 337°
2026-05-05 08:59 40.08586 2.17699 15949 ft 374 kts 337°
2026-05-05 08:59 40.11067 2.16677 15947 ft 374 kts 337°
2026-05-05 09:00 40.13552 2.15653 15948 ft 374 kts 337°
2026-05-05 09:00 40.16034 2.14630 15947 ft 374 kts 337°
2026-05-05 09:00 40.18483 2.13619 15948 ft 374 kts 337°
2026-05-05 09:00 40.20997 2.12581 15950 ft 374 kts 337°
2026-05-05 09:01 40.23479 2.11555 15953 ft 374 kts 337°
2026-05-05 09:01 40.25934 2.10550 15941 ft 375 kts 340°
2026-05-05 09:01 40.28587 2.10121 15956 ft 384 kts 354°
2026-05-05 09:01 40.31262 2.10053 15942 ft 384 kts 354°
2026-05-05 09:02 40.33898 2.10011 15954 ft 384 kts 355°
2026-05-05 09:02 40.36571 2.09970 15946 ft 384 kts 355°
2026-05-05 09:02 40.39243 2.09923 15952 ft 384 kts 354°
2026-05-05 09:02 40.41919 2.09872 15939 ft 384 kts 355°
2026-05-05 09:03 40.44589 2.09817 15941 ft 384 kts 354°
2026-05-05 09:03 40.47297 2.09760 15949 ft 384 kts 354°
2026-05-05 09:03 40.49974 2.09703 15913 ft 385 kts 354°
2026-05-05 09:03 40.52363 2.09652 15703 ft 384 kts 355°
2026-05-05 09:04 40.55383 2.09588 15422 ft 381 kts 355°
2026-05-05 09:04 40.58044 2.09531 15178 ft 379 kts 355°
2026-05-05 09:04 40.60674 2.09474 14922 ft 378 kts 355°
2026-05-05 09:04 40.63216 2.09419 14699 ft 377 kts 355°
2026-05-05 09:05 40.67545 2.09326 14300 ft 374 kts 355°
2026-05-05 09:05 40.68406 2.09307 14217 ft 373 kts 355°
2026-05-05 09:06 40.80263 2.11032 12881 ft 352 kts 17°
2026-05-05 09:06 40.82593 2.12088 12728 ft 338 kts 16°
2026-05-05 09:07 40.84779 2.13081 12525 ft 328 kts 16°
2026-05-05 09:07 40.86926 2.14055 12129 ft 325 kts 16°
2026-05-05 09:07 40.89061 2.15025 11698 ft 323 kts 17°
2026-05-05 09:07 40.91180 2.15989 11275 ft 322 kts 17°
2026-05-05 09:08 40.93293 2.16951 10854 ft 320 kts 17°
2026-05-05 09:08 40.95392 2.17909 10437 ft 318 kts 17°
2026-05-05 09:08 40.97480 2.18862 9982 ft 318 kts 17°
2026-05-05 09:08 40.99574 2.19818 9497 ft 318 kts 17°
2026-05-05 09:09 41.01663 2.20771 9000 ft 317 kts 17°
2026-05-05 09:09 41.03750 2.21724 8519 ft 316 kts 17°
2026-05-05 09:09 41.05817 2.22670 8107 ft 313 kts 18°
2026-05-05 09:09 41.07868 2.23609 7706 ft 310 kts 18°
2026-05-05 09:10 41.09888 2.24535 7311 ft 307 kts 18°
2026-05-05 09:10 41.11906 2.25460 6886 ft 305 kts 18°
2026-05-05 09:10 41.13910 2.26379 6448 ft 304 kts 18°
2026-05-05 09:10 41.15902 2.27295 5990 ft 302 kts 18°
2026-05-05 09:11 41.17920 2.28157 5533 ft 299 kts 12°
2026-05-05 09:11 41.19963 2.28612 5077 ft 297 kts
2026-05-05 09:11 41.21982 2.28553 4639 ft 293 kts 354°
2026-05-05 09:11 41.24012 2.28468 4184 ft 292 kts 360°
2026-05-05 09:12 41.26034 2.28696 3732 ft 291 kts
2026-05-05 09:12 41.28013 2.29045 3284 ft 289 kts
2026-05-05 09:12 41.29976 2.29393 3033 ft 279 kts
2026-05-05 09:12 41.31856 2.29724 2963 ft 264 kts
2026-05-05 09:13 41.33620 2.29744 2965 ft 245 kts 345°
2026-05-05 09:13 41.35024 2.28696 2886 ft 228 kts 307°
2026-05-05 09:13 41.35579 2.26790 2613 ft 224 kts 270°
2026-05-05 09:13 41.35348 2.24744 2319 ft 225 kts 253°
2026-05-05 09:14 41.34816 2.22846 2025 ft 212 kts 247°
2026-05-05 09:14 41.34272 2.21204 1801 ft 171 kts 246°
2026-05-05 09:14 41.33827 2.19892 1567 ft 142 kts 246°
2026-05-05 09:14 41.33446 2.18775 1370 ft 122 kts 245°
2026-05-05 09:15 41.33109 2.17788 1218 ft 118 kts 246°
2026-05-05 09:15 41.32765 2.16781 1061 ft 120 kts 246°
2026-05-05 09:15 41.32423 2.15785 896 ft 119 kts 247°
2026-05-05 09:15 41.32078 2.14778 734 ft 120 kts 247°
2026-05-05 09:16 41.31739 2.13788 579 ft 120 kts 248°
2026-05-05 09:16 41.31387 2.12764 428 ft 122 kts 249°
2026-05-05 09:16 41.31030 2.11736 281 ft 125 kts 248°
2026-05-05 09:16 41.30667 2.10670 116 ft 125 kts 249°
2026-05-05 09:17 41.30320 2.09641 6 ft 113 kts 249°
2026-05-05 09:17 41.30130 2.09087 5 ft 23 kts 244°
2026-05-05 09:17 41.30072 2.08910 4 ft 16 kts 243°
2026-05-05 09:17 41.30029 2.08792 5 ft 16 kts 243°
2026-05-05 09:18 41.29937 2.08639 6 ft 25 kts 221°
2026-05-05 09:18 41.29848 2.08548 5 ft 0 kts 213°
2026-05-05 09:19 41.29804 2.08508 5 ft 18 kts 214°
2026-05-05 09:20 41.29700 2.08369 4 ft 20 kts 242°
2026-05-05 09:20 41.29635 2.08178 3 ft 25 kts 246°
2026-05-05 09:20 41.29564 2.07971 3 ft 20 kts 245°
2026-05-05 09:20 41.29528 2.07870 3 ft 1 kts 246°
2026-05-05 09:21 41.29510 2.07815 3 ft 15 kts 245°
2026-05-05 09:21 41.29479 2.07727 3 ft 4 kts 245°
2026-05-05 09:21 41.29438 2.07605 3 ft 24 kts 246°
2026-05-05 09:21 41.29399 2.07538 3 ft 10 kts 196°
2026-05-05 09:22 41.29337 2.07567 3 ft 5 kts 128°
2026-05-05 09:22 41.29352 2.07630 3 ft 14 kts 72°
2026-05-05 09:22 41.29293 2.07774 3 ft 23 kts 157°
2026-05-05 09:22 41.29217 2.07818 4 ft 9 kts 152°
2026-05-05 09:23 41.29195 2.07847 3 ft 10 kts 130°
2026-05-05 09:23 41.29146 2.07892 5 ft 2 kts 155°
2026-05-05 09:23 41.29137 2.07898 4 ft 1 kts 155°
2026-05-05 09:23 41.29135 2.07899 3 ft 0 kts 155°